Date String (YYYY-MM-DD hh:mm:ss) UTC,Instrument flags,Ambient pressure (hPa),Sample flow (lpm),Bypass flow (lpm),Sample temperature (°C),Ambient temperature (°C),ASC tube jacket temperature (°C),LED temperature (°C),Box temperature (°C),Sample RH (%),Span deviation,Mass concentration (μg/m³),Mass concentration (μg/m³),Mass concentration (μg/m³)
DateTimeUTC,F1_M11,P_M11,Q1_M11,Q2_M11,T1_M11,T2_M11,T3_M11,T4_M11,T5_M11,U1_M11,ZSPAN_M11,X0_M11,X2_M11,X1_M11
2022-10-12 04:00:00,,0826.5,5.00,0.00,29.9,28.1,00.0,38.8,31.6,16.0,0000.0,0011.39,0004.96,0003.92
2022-10-12 04:01:00,,0826.5,5.00,0.00,29.9,28.2,00.0,38.8,31.6,16.0,0000.0,0011.00,0004.92,0003.92
2022-10-12 04:02:00,,0826.5,5.01,0.00,29.9,28.2,00.0,38.8,31.6,16.0,0000.0,0009.94,0004.91,0003.93
2022-10-12 04:03:00,,0826.5,5.00,0.00,29.9,28.2,00.0,38.8,31.6,16.0,0000.0,0010.01,0004.92,0003.93
2022-10-12 04:04:00,,0826.5,4.99,0.00,29.9,28.2,00.0,38.8,31.6,16.0,0000.0,0010.78,0004.96,0003.93
2022-10-12 04:05:00,,0826.5,5.01,0.00,29.9,28.2,00.0,38.8,31.6,16.0,0000.0,0011.64,0004.99,0003.94
2022-10-12 04:06:00,,0826.5,5.01,0.00,29.8,28.2,00.0,38.8,31.6,16.0,0000.0,0011.99,0005.02,0003.94
2022-10-12 04:07:00,,0826.5,4.99,0.00,29.9,28.2,00.0,38.8,31.6,16.1,0000.0,0012.48,0005.03,0003.94
2022-10-12 04:08:00,,0826.5,4.98,0.00,29.8,28.2,00.0,38.7,31.6,16.1,0000.0,0012.54,0005.03,0003.94
2022-10-12 04:09:00,,0826.5,5.00,0.00,29.8,28.2,00.0,38.7,31.6,16.1,0000.0,0012.63,0005.02,0003.95
2022-10-12 04:10:00,,0826.5,5.00,0.00,29.8,28.2,00.0,38.7,31.6,16.0,0000.0,0012.82,0005.05,0003.96
2022-10-12 04:11:00,,0826.5,5.01,0.00,29.8,28.2,00.0,38.7,31.6,16.0,0000.0,0012.84,0005.04,0003.96
2022-10-12 04:12:00,,0826.5,4.99,0.00,29.8,28.2,00.0,38.7,31.6,16.0,0000.0,0013.19,0005.01,0003.97
2022-10-12 04:13:00,,0826.5,5.00,0.00,29.8,28.2,00.0,38.7,31.6,16.0,0000.0,0013.53,0004.98,0003.96
2022-10-12 04:14:00,,0826.5,5.00,0.00,29.8,28.1,00.0,38.7,31.6,16.1,0000.0,0013.34,0004.98,0003.96
2022-10-12 04:15:00,,0826.5,5.01,0.00,29.8,28.1,00.0,38.7,31.6,16.1,0000.0,0012.79,0004.94,0003.96
2022-10-12 04:16:00,,0826.5,5.00,0.00,29.8,28.1,00.0,38.7,31.6,16.1,0000.0,0012.56,0004.91,0003.96
2022-10-12 04:17:00,,0826.5,4.99,0.00,29.8,28.1,00.0,38.7,31.6,16.1,0000.0,0012.10,0004.85,0003.95
2022-10-12 04:18:00,,0826.5,5.00,0.00,29.8,28.1,00.0,38.7,31.6,16.1,0000.0,0012.03,0004.86,0003.95
2022-10-12 04:19:00,,0826.5,5.01,0.00,29.8,28.0,00.0,38.7,31.5,16.1,0000.0,0011.90,0004.89,0003.96
2022-10-12 04:20:00,,0826.5,5.01,0.00,29.8,27.9,00.0,38.7,31.4,16.1,0000.0,0011.91,0004.88,0003.95
2022-10-12 04:21:00,,0826.5,5.00,0.00,29.7,27.8,00.0,38.7,31.4,16.2,0000.0,0011.81,0004.88,0003.96
2022-10-12 04:22:00,,0826.5,4.99,0.00,29.7,27.9,00.0,38.6,31.4,16.2,0000.0,0012.32,0004.85,0003.96
2022-10-12 04:23:00,,0826.5,5.00,0.00,29.7,27.8,00.0,38.6,31.4,16.2,0000.0,0012.40,0004.87,0003.95
2022-10-12 04:24:00,,0826.5,5.00,0.00,29.7,27.8,00.0,38.6,31.4,16.2,0000.0,0012.45,0004.89,0003.96
2022-10-12 04:25:00,,0826.5,5.01,0.00,29.7,27.8,00.0,38.6,31.4,16.2,0000.0,0013.07,0004.91,0003.95
2022-10-12 04:26:00,,0826.5,5.00,0.00,29.7,27.8,00.0,38.6,31.4,16.2,0000.0,0014.38,0004.91,0003.95
2022-10-12 04:27:00,,0826.5,4.99,0.00,29.6,27.8,00.0,38.6,31.4,16.3,0000.0,0014.20,0004.92,0003.95
2022-10-12 04:28:00,,0826.6,5.02,0.00,29.6,27.8,00.0,38.6,31.3,16.3,0000.0,0013.97,0004.92,0003.94
2022-10-12 04:29:00,,0826.5,5.01,0.00,29.6,27.7,00.0,38.5,31.3,16.3,0000.0,0014.14,0004.88,0003.93
2022-10-12 04:30:00,,0826.5,5.00,0.00,29.6,27.7,00.0,38.5,31.3,16.3,0000.0,0014.01,0004.84,0003.91
2022-10-12 04:31:00,,0826.5,5.00,0.00,29.6,27.7,00.0,38.5,31.3,16.3,0000.0,0014.08,0004.82,0003.90
2022-10-12 04:32:00,,0826.5,5.00,0.00,29.6,27.7,00.0,38.5,31.3,16.3,0000.0,0014.35,0004.82,0003.88
2022-10-12 04:33:00,,0826.5,5.00,0.00,29.6,27.7,00.0,38.5,31.3,16.3,0000.0,0013.76,0004.79,0003.88
2022-10-12 04:34:00,,0826.5,4.99,0.00,29.6,27.8,00.0,38.5,31.3,16.3,0000.0,0013.87,0004.77,0003.89
2022-10-12 04:35:00,,0826.5,5.00,0.00,29.6,27.8,00.0,38.5,31.3,16.3,0000.0,0013.90,0004.75,0003.89
2022-10-12 04:36:00,,0826.5,5.01,0.00,29.5,27.8,00.0,38.5,31.3,16.3,0000.0,0013.48,0004.76,0003.90
2022-10-12 04:37:00,,0826.5,5.01,0.00,29.5,27.8,00.0,38.4,31.3,16.4,0000.0,0011.94,0004.73,0003.91
2022-10-12 04:38:00,,0826.4,5.00,0.00,29.5,27.7,00.0,38.4,31.2,16.4,0000.0,0011.47,0004.73,0003.91
2022-10-12 04:39:00,,0826.4,4.99,0.00,29.5,27.7,00.0,38.4,31.2,16.4,0000.0,0012.01,0004.72,0003.92
2022-10-12 04:40:00,,0826.4,5.01,0.00,29.5,27.7,00.0,38.4,31.2,16.4,0000.0,0012.10,0004.73,0003.93
2022-10-12 04:41:00,,0826.4,5.01,0.00,29.5,27.8,00.0,38.4,31.2,16.4,0000.0,0012.54,0004.77,0003.94
2022-10-12 04:42:00,,0826.4,4.99,0.00,29.5,27.8,00.0,38.4,31.3,16.4,0000.0,0012.24,0004.77,0003.96
2022-10-12 04:43:00,,0826.4,5.00,0.00,29.5,27.9,00.0,38.4,31.3,16.4,0000.0,0012.42,0004.75,0003.96
2022-10-12 04:44:00,,0826.4,5.02,0.00,29.5,27.9,00.0,38.4,31.3,16.4,0000.0,0014.07,0004.77,0003.96
2022-10-12 04:45:00,,0826.4,5.00,0.00,29.5,27.9,00.0,38.4,31.3,16.4,0000.0,0013.62,0004.79,0003.96
2022-10-12 04:46:00,,0826.5,4.99,0.00,29.5,27.9,00.0,38.4,31.2,16.4,0000.0,0012.86,0004.78,0003.97
2022-10-12 04:47:00,,0826.5,5.00,0.00,29.5,27.8,00.0,38.4,31.2,16.4,0000.0,0012.89,0004.75,0003.97
2022-10-12 04:48:00,,0826.5,5.00,0.00,29.4,27.6,00.0,38.4,31.1,16.5,0000.0,0012.88,0004.76,0003.97
2022-10-12 04:49:00,,0826.4,5.00,0.00,29.4,27.5,00.0,38.3,31.1,16.7,0000.0,0013.03,0004.82,0004.00
2022-10-12 04:50:00,,0826.5,5.00,0.00,29.4,27.5,00.0,38.3,31.1,16.6,0000.0,0012.77,0004.87,0004.01
2022-10-12 04:51:00,,0826.5,4.99,0.00,29.4,27.6,00.0,38.3,31.1,16.6,0000.0,0012.95,0004.91,0004.02
2022-10-12 04:52:00,,0826.5,5.00,0.00,29.4,27.7,00.0,38.3,31.1,16.6,0000.0,0012.61,0004.88,0004.04
2022-10-12 04:53:00,,0826.5,5.01,0.00,29.4,27.8,00.0,38.3,31.1,16.5,0000.0,0012.95,0004.90,0004.05
2022-10-12 04:54:00,,0826.4,5.00,0.00,29.4,27.8,00.0,38.3,31.2,16.5,0000.0,0012.21,0004.93,0004.06
2022-10-12 04:55:00,,0826.4,4.99,0.00,29.4,27.7,00.0,38.3,31.1,16.5,0000.0,0010.62,0004.99,0004.07
2022-10-12 04:56:00,,0826.4,5.00,0.00,29.4,27.5,00.0,38.3,31.1,16.5,0000.0,0011.15,0005.01,0004.06
2022-10-12 04:57:00,,0826.4,5.02,0.00,29.3,27.5,00.0,38.3,31.0,16.6,0000.0,0011.65,0005.02,0004.06
2022-10-12 04:58:00,,0826.5,5.01,0.00,29.3,27.5,00.0,38.3,31.0,16.6,0000.0,0012.85,0005.03,0004.06
2022-10-12 04:59:00,,0826.5,5.00,0.00,29.3,27.4,00.0,38.2,31.0,16.6,0000.0,0013.57,0005.07,0004.06
